Location: Rottenacker
(48.2350°N, 9.6886°E)
Time: 22:12:57
(UTC+01:00)

ISS - Pass Details

Date: 10 January 2018
Orbit: 401 x 407 km, 51.6° (Epoch: 17 January)

Event Time Altitude Azimuth Distance (km) Brightness Sun altitude
Exits shadow 06:32:23 38° 296° (WNW) 639 -3.4 -15.6°
Maximum altitude 06:33:31 84° 19° (NNE) 413 -3.9 -15.4°
Drops below altitude 10° 06:36:48 10° 110° (ESE) 1,464 0.4 -14.9°
Sets 06:38:53 0° 111° (ESE) 2,323 2.0 -14.6°
